COSMOS 2559 (707K)

Last updated on Mon Oct 20 2025 00:03:19 GMT+0000 (Coordinated Universal Time)

1 54031U 22130A 25290.78947542 -.00000039 00000+0 00000+0 0 9996 2 54031 64.4118 323.1110 0012940 191.1981 168.8362 2.13101599 23523
UTC large
Height (km)
Speed (km/s)
/
Latitude / Longitude
Inclination (degrees)
Orbital Period (minutes)
Azimuth
Elevation
Range (km)
Doppler Factor

Next 0 passes for location: London (51.5072 / 0.1276)

Sorry there are no passes over London.